GW4431 Weather Reports


time (UTC)temp
C
wind
direction
speed
KPH
gust
KPH
rain 1hr
cm
rain 24hr
cm
rain mn
cm
humidity
%
barometer
mb
20260904122641 28 185 1.6 4.8 0.00 0.00 0.00 87 1017.9
20260904122136 28 215 3.2 4.8 0.00 0.00 0.00 87 1018.1
20260904121631 28 199 0.0 4.8 0.00 0.00 0.00 88 1018.0
20260904121127 27 179 3.2 4.8 0.00 0.00 0.00 87 1017.8
20260904120623 27 175 1.6 4.8 0.00 0.00 0.00 88 1017.9
20260904120119 27 159 1.6 4.8 0.00 0.00 0.00 89 1017.7
20260904115618 27 148 3.2 3.2 0.00 0.00 0.00 89 1017.6
20260904115113 27 188 3.2 3.2 0.00 0.00 0.00 90 1017.6
20260904114608 26 177 3.2 3.2 0.00 0.00 0.00 91 1017.7
20260904114103 26 200 1.6 4.8 0.00 0.00 0.00 92 1017.3
20260904113602 26 183 1.6 3.2 0.00 0.00 0.00 93 1017.4
20260904113056 26 191 3.2 3.2 0.00 0.00 0.00 94 1017.4
20260904112552 25 176 1.6 4.8 0.00 0.00 0.00 95 1017.3
20260904112048 25 210 0.0 3.2 0.00 0.00 0.00 95 1017.1
20260904111543 25 168 1.6 1.6 0.00 0.00 0.00 95 1017.1
20260904111038 25 176 3.2 3.2 0.00 0.00 0.00 95 1017.1
20260904110532 25 194 1.6 3.2 0.00 0.00 0.00 95 1017.1
20260904110028 25 157 1.6 3.2 0.00 0.00 0.00 95 1017.2
20260904105522 25 191 1.6 3.2 0.00 0.00 0.00 94 1017.0
20260904105017 25 210 0.0 3.2 0.00 0.00 0.00 94 1017.0
20260904104513 25 228 0.0 3.2 0.00 0.00 0.00 94 1016.9
20260904104008 25 204 1.6 3.2 0.00 0.00 0.00 94 1016.7
20260904103504 26 192 1.6 3.2 0.00 0.00 0.00 93 1017.0
20260904103000 26 179 0.0 3.2 0.00 0.00 0.00 93 1017.1
20260904102455 26 145 1.6 4.8 0.00 0.00 0.00 93 1016.9
20260904101950 26 191 0.0 3.2 0.00 0.00 0.00 93 1016.8
20260904101447 26 157 3.2 3.2 0.00 0.00 0.00 93 1016.8
20260904100943 26 242 0.0 3.2 0.00 0.00 0.00 93 1016.7
20260904100438 26 188 1.6 4.8 0.00 0.00 0.00 93 1016.7
20260904095938 26 128 3.2 4.8 0.00 0.00 0.00 93 1016.7
20260904095433 26 114 4.8 4.8 0.00 0.00 0.00 93 1016.5
20260904094928 26 102 1.6 4.8 0.00 0.00 0.00 93 1016.4
20260904094423 26 189 0.0 3.2 0.00 0.00 0.00 94 1016.2
20260904093919 26 146 1.6 3.2 0.00 0.00 0.00 93 1016.3
20260904093414 26 258 0.0 4.8 0.00 0.00 0.00 94 1016.3
20260904092909 26 121 3.2 4.8 0.00 0.00 0.00 94 1016.3
20260904092406 25 128 0.0 4.8 0.00 0.00 0.00 94 1016.3
20260904091901 25 154 3.2 4.8 0.00 0.00 0.00 94 1016.4
20260904091356 25 130 4.8 4.8 0.00 0.00 0.00 94 1016.4
20260904090851 25 228 0.0 3.2 0.00 0.00 0.00 94 1016.3
20260904090348 25 227 0.0 3.2 0.00 0.00 0.00 94 1016.4
20260904085843 25 156 0.0 4.8 0.00 0.00 0.00 95 1016.2
20260904085338 25 120 3.2 4.8 0.00 0.00 0.00 95 1016.1
20260904084837 25 185 1.6 3.2 0.00 0.00 0.00 95 1016.4
20260904084334 25 203 3.2 4.8 0.00 0.00 0.00 95 1016.3
20260904083829 25 139 0.0 3.2 0.00 0.00 0.00 95 1016.3
20260904083326 25 212 1.6 3.2 0.00 0.00 0.00 95 1016.1
20260904082821 25 167 4.8 4.8 0.00 0.00 0.00 95 1016.3
20260904082315 25 142 0.0 3.2 0.00 0.00 0.00 95 1016.3
20260904081811 25 161 0.0 3.2 0.00 0.00 0.00 95 1016.1
20260904081307 25 185 0.0 3.2 0.00 0.00 0.00 94 1016.2
20260904080802 26 176 1.6 4.8 0.00 0.00 0.00 94 1016.0
20260904080257 26 201 4.8 4.8 0.00 0.00 0.00 94 1016.1
20260904075754 26 208 3.2 4.8 0.00 0.00 0.00 93 1016.3
20260904075248 26 208 3.2 4.8 0.00 0.00 0.00 93 1015.9
20260904074747 26 165 1.6 3.2 0.00 0.00 0.00 92 1016.1
20260904074243 26 180 1.6 3.2 0.00 0.00 0.00 92 1016.1
20260904073738 26 158 4.8 4.8 0.00 0.00 0.00 92 1016.1
20260904073234 26 112 3.2 4.8 0.00 0.00 0.00 92 1016.0
20260904072730 26 140 1.6 6.4 0.00 0.00 0.00 92 1015.9
20260904072224 26 144 4.8 4.8 0.00 0.00 0.00 92 1016.0
20260904071720 26 191 3.2 6.4 0.00 0.00 0.00 93 1015.9
20260904071214 26 137 4.8 8.0 0.00 0.00 0.00 94 1015.8
20260904070714 26 144 4.8 6.4 0.00 0.00 0.00 94 1016.0
20260904070213 26 191 0.0 4.8 0.00 0.00 0.00 94 1016.1
20260904065708 26 172 1.6 3.2 0.00 0.00 0.00 94 1016.2
20260904065205 26 160 0.0 3.2 0.00 0.00 0.00 94 1016.2
20260904064705 26 154 0.0 3.2 0.00 0.00 0.00 94 1016.2
20260904064200 26 98 3.2 4.8 0.00 0.00 0.00 94 1016.4
20260904063656 25 148 0.0 3.2 0.00 0.00 0.00 94 1016.3
20260904063152 25 135 0.0 1.6 0.00 0.00 0.00 93 1016.3
20260904062648 25 134 0.0 3.2 0.00 0.00 0.00 94 1016.3
20260904062143 25 188 1.6 3.2 0.00 0.00 0.00 93 1016.5
20260904061639 25 102 1.6 3.2 0.00 0.00 0.00 93 1016.5
20260904061135 25 189 0.0 3.2 0.00 0.00 0.00 93 1016.6
20260904060631 25 202 0.0 1.6 0.00 0.00 0.00 93 1016.7
20260904060127 25 236 0.0 1.6 0.00 0.00 0.00 93 1016.6
20260904055627 25 147 0.0 3.2 0.00 0.00 0.00 93 1016.6
20260904055122 25 240 0.0 1.6 0.00 0.00 0.00 93 1016.8
20260904054618 25 129 0.0 3.2 0.00 0.00 0.00 93 1016.7
20260904054114 25 150 0.0 3.2 0.00 0.00 0.00 92 1017.0
20260904053614 25 120 0.0 3.2 0.00 0.00 0.00 92 1016.8
20260904053108 25 105 0.0 3.2 0.00 0.00 0.00 92 1016.9
20260904052605 25 173 0.0 1.6 0.00 0.00 0.00 92 1017.1
20260904052100 25 104 0.0 1.6 0.00 0.00 0.00 92 1016.9
20260904051557 25 120 3.2 3.2 0.00 0.00 0.00 91 1017.0
20260904051056 25 121 0.0 1.6 0.00 0.00 0.00 91 1017.1
20260904050552 25 89 0.0 3.2 0.00 0.00 0.00 91 1017.2
20260904050048 25 208 0.0 3.2 0.00 0.00 0.00 91 1017.3
20260904045543 25 159 0.0 3.2 0.00 0.00 0.00 91 1017.2
20260904045038 25 217 0.0 3.2 0.00 0.00 0.00 91 1017.1
20260904044534 25 171 0.0 3.2 0.00 0.00 0.00 91 1017.4
20260904044030 25 180 0.0 3.2 0.00 0.00 0.00 91 1017.2
20260904043526 25 139 0.0 1.6 0.00 0.00 0.00 92 1017.3
20260904043021 25 175 0.0 4.8 0.00 0.00 0.00 92 1017.3
20260904042513 25 152 0.0 3.2 0.00 0.00 0.00 92 1017.4
20260904042007 25 160 3.2 3.2 0.00 0.00 0.00 92 1017.2
20260904041503 25 162 1.6 3.2 0.00 0.00 0.00 92 1017.3
20260904040959 25 202 0.0 3.2 0.00 0.00 0.00 92 1017.2
20260904040458 25 174 0.0 3.2 0.00 0.00 0.00 92 1017.0
20260904035955 25 168 1.6 3.2 0.00 0.00 0.00 92 1017.2
20260904035450 25 175 3.2 4.8 0.00 0.00 0.00 91 1016.8
20260904034949 26 202 3.2 3.2 0.00 0.00 0.00 90 1017.0
20260904034445 26 170 3.2 3.2 0.00 0.00 0.00 90 1017.0
20260904033940 26 180 1.6 6.4 0.00 0.00 0.00 90 1017.1
20260904033436 26 181 1.6 4.8 0.00 0.00 0.00 90 1017.1
20260904032933 26 218 0.0 3.2 0.00 0.00 0.00 90 1017.1
20260904032428 26 150 1.6 6.4 0.00 0.00 0.00 90 1017.1
20260904031927 26 147 0.0 3.2 0.00 0.00 0.00 89 1017.1
20260904031423 26 140 0.0 4.8 0.00 0.00 0.00 89 1017.2
20260904030919 26 133 4.8 8.0 0.00 0.00 0.00 89 1017.2
20260904030419 26 170 3.2 4.8 0.00 0.00 0.00 89 1017.4
20260904025915 26 156 3.2 3.2 0.00 0.00 0.00 90 1017.4
20260904025411 26 130 3.2 4.8 0.00 0.00 0.00 90 1017.3
20260904024910 26 170 1.6 3.2 0.00 0.00 0.00 91 1017.3
20260904024405 26 154 0.0 1.6 0.00 0.00 0.00 91 1017.4
20260904023902 26 48 0.0 3.2 0.00 0.00 0.00 91 1017.3
20260904023358 26 107 0.0 1.6 0.00 0.00 0.00 91 1017.2
20260904022856 26 53 0.0 0.0 0.00 0.00 0.00 90 1017.2
20260904022354 26 220 0.0 0.0 0.00 0.00 0.00 90 1017.3
20260904021850 26 217 0.0 0.0 0.00 0.00 0.00 90 1017.1
20260904021345 26 293 0.0 0.0 0.00 0.00 0.00 90 1017.1
20260904020840 26 113 0.0 1.6 0.00 0.00 0.00 90 1017.1
20260904020335 25 37 0.0 1.6 0.00 0.00 0.00 90 1017.1
20260904015834 25 107 0.0 1.6 0.00 0.00 0.00 90 1017.2
20260904015330 25 129 0.0 1.6 0.00 0.00 0.00 90 1017.1
20260904014828 26 269 0.0 1.6 0.00 0.00 0.00 90 1017.4
20260904014323 26 175 1.6 1.6 0.00 0.00 0.00 90 1017.3
20260904013819 26 126 0.0 3.2 0.00 0.00 0.00 89 1017.3
20260904013315 26 215 3.2 4.8 0.00 0.00 0.00 89 1017.1
20260904012811 26 229 0.0 1.6 0.00 0.00 0.00 88 1017.3
20260904012306 26 193 0.0 1.6 0.00 0.00 0.00 89 1017.1
20260904011804 26 191 0.0 1.6 0.00 0.00 0.00 89 1017.0
20260904011259 26 283 0.0 1.6 0.00 0.00 0.00 89 1016.8
20260904010753 26 297 0.0 0.0 0.00 0.00 0.00 89 1016.8
20260904010251 26 119 0.0 1.6 0.00 0.00 0.00 89 1017.0
20260904005750 26 113 0.0 1.6 0.00 0.00 0.00 89 1016.9
20260904005247 25 349 0.0 1.6 0.00 0.00 0.00 89 1016.8
20260904004741 25 4 0.0 1.6 0.00 0.00 0.00 89 1016.8
20260904004237 25 269 0.0 1.6 0.00 0.00 0.00 89 1016.8
20260904003731 25 75 0.0 0.0 0.00 0.00 0.00 89 1016.8
20260904003228 25 75 0.0 1.6 0.00 0.00 0.00 90 1017.0
20260904002723 25 114 0.0 1.6 0.00 0.00 0.00 89 1017.0
20260904002220 25 202 0.0 3.2 0.00 0.00 0.00 89 1016.9
20260904001714 25 216 0.0 3.2 0.00 0.00 0.00 89 1016.9
20260904001213 25 290 3.2 4.8 0.00 0.00 0.00 89 1017.0
20260904000709 26 255 3.2 4.8 0.00 0.00 0.00 89 1017.1
20260904000204 26 286 0.0 3.2 0.00 0.00 0.00 88 1016.8
20260903235703 26 238 4.8 6.4 0.00 0.00 0.00 88 1016.6
20260903235159 26 239 6.4 6.4 0.00 0.00 0.00 87 1016.7
20260903234648 26 250 4.8 8.0 0.00 0.00 0.00 86 1016.7
20260903234144 26 264 3.2 6.4 0.00 0.00 0.00 87 1016.6
20260903233640 26 242 4.8 6.4 0.00 0.00 0.00 86 1016.6
20260903233136 26 217 4.8 6.4 0.00 0.00 0.00 86 1016.7
20260903232630 26 213 6.4 8.0 0.00 0.00 0.00 86 1016.7
20260903232127 27 202 8.0 14.5 0.00 0.00 0.00 84 1016.5
20260903231621 27 191 4.8 8.0 0.00 0.00 0.00 84 1016.5
20260903231120 27 178 3.2 4.8 0.00 0.00 0.00 82 1016.4
20260903230616 27 206 8.0 9.7 0.00 0.00 0.00 84 1016.5
20260903230115 27 210 11.3 14.5 0.00 0.00 0.00 81 1016.5
20260903225612 28 158 4.8 12.9 0.00 0.00 0.00 82 1016.5
20260903225109 28 170 3.2 4.8 0.00 0.00 0.00 83 1016.4
20260903224605 28 144 1.6 4.8 0.00 0.00 0.00 82 1016.3
20260903224100 28 160 3.2 4.8 0.00 0.00 0.00 83 1016.4
20260903223555 28 214 0.0 3.2 0.00 0.00 0.00 82 1016.2
20260903223053 28 167 3.2 4.8 0.00 0.00 0.00 82 1016.2
20260903222549 28 160 6.4 6.4 0.00 0.00 0.00 81 1016.4
20260903222047 28 113 1.6 4.8 0.00 0.00 0.00 81 1015.8
20260903221543 28 115 3.2 4.8 0.00 0.00 0.00 81 1016.2
20260903221041 28 200 1.6 3.2 0.00 0.00 0.00 81 1016.0
20260903220539 28 74 3.2 6.4 0.00 0.00 0.00 81 1016.0
20260903220034 28 145 1.6 6.4 0.00 0.00 0.00 80 1016.1
20260903215533 28 170 1.6 6.4 0.00 0.00 0.00 81 1016.2
20260903215033 29 99 4.8 8.0 0.00 0.00 0.00 80 1016.1
20260903214533 30 85 4.8 6.4 0.00 0.00 0.00 80 1016.0
20260903214028 30 113 4.8 8.0 0.00 0.00 0.00 81 1015.7
20260903213523 29 100 1.6 8.0 0.00 0.00 0.00 82 1015.9
20260903213019 29 159 1.6 8.0 0.00 0.00 0.00 81 1016.0
20260903212514 30 126 1.6 6.4 0.00 0.00 0.00 81 1016.2
20260903212009 30 19 0.0 6.4 0.00 0.00 0.00 81 1016.1
20260903211504 30 97 3.2 6.4 0.00 0.00 0.00 80 1015.9
20260903211001 30 113 0.0 6.4 0.00 0.00 0.00 80 1015.6
20260903210501 30 112 6.4 6.4 0.00 0.00 0.00 78 1015.8
20260903205956 30 150 4.8 8.0 0.00 0.00 0.00 78 1015.5
20260903205450 30 120 3.2 9.7 0.00 0.00 0.00 81 1015.0
20260903204944 30 89 4.8 9.7 0.00 0.00 0.00 82 1015.0
20260903204441 30 94 4.8 6.4 0.00 0.00 0.00 82 1014.9
20260903203936 30 89 6.4 9.7 0.00 0.00 0.00 82 1015.0
20260903203432 30 51 1.6 4.8 0.00 0.00 0.00 82 1015.2
20260903202931 30 121 1.6 6.4 0.00 0.00 0.00 84 1015.5
20260903202427 29 99 4.8 8.0 0.00 0.00 0.00 84 1015.3
20260903201926 29 28 4.8 8.0 0.00 0.00 0.00 84 1015.6
20260903201422 29 110 3.2 9.7 0.00 0.00 0.00 84 1015.9
20260903200921 29 176 3.2 6.4 0.00 0.00 0.00 84 1015.9
20260903200416 29 80 4.8 12.9 0.00 0.00 0.00 83 1015.8
20260903195911 29 81 3.2 3.2 0.00 0.00 0.00 84 1015.8
20260903195408 28 1 0.0 9.7 0.00 0.00 0.00 84 1015.9
20260903194901 29 190 3.2 8.0 0.00 0.00 0.00 84 1016.0
20260903194357 29 181 1.6 4.8 0.00 0.00 0.00 84 1015.9
20260903193852 29 188 3.2 6.4 0.00 0.00 0.00 83 1016.0
20260903193349 29 109 8.0 8.0 0.00 0.00 0.00 82 1016.1
20260903192844 29 119 0.0 4.8 0.00 0.00 0.00 82 1016.1
20260903192339 29 77 3.2 8.0 0.00 0.00 0.00 82 1016.1
20260903191836 29 105 3.2 8.0 0.00 0.00 0.00 82 1016.3
20260903191327 29 77 6.4 14.5 0.00 0.00 0.00 82 1016.2
20260903190825 29 78 6.4 8.0 0.00 0.00 0.00 82 1016.1
20260903190320 28 192 1.6 8.0 0.00 0.00 0.00 83 1016.3
20260903185819 29 73 6.4 11.3 0.00 0.00 0.00 82 1016.3
20260903185314 29 80 4.8 6.4 0.00 0.00 0.00 82 1016.3
20260903184811 29 76 4.8 9.7 0.00 0.00 0.00 82 1016.4
20260903184307 29 103 4.8 8.0 0.00 0.00 0.00 82 1016.4
20260903183802 29 87 11.3 12.9 0.00 0.00 0.00 81 1016.6
20260903183302 29 82 3.2 4.8 0.00 0.00 0.00 82 1016.7
20260903182800 29 91 3.2 14.5 0.00 0.00 0.00 81 1016.8
20260903182256 30 102 4.8 8.0 0.00 0.00 0.00 81 1016.8
20260903181755 30 116 6.4 8.0 0.00 0.00 0.00 81 1016.8
20260903181250 30 133 1.6 9.7 0.00 0.00 0.00 81 1016.7
20260903180745 30 62 3.2 8.0 0.00 0.00 0.00 80 1016.8
20260903180244 30 29 3.2 8.0 0.00 0.00 0.00 78 1016.7
20260903175738 30 142 3.2 8.0 0.00 0.00 0.00 78 1016.9
20260903175237 31 85 8.0 9.7 0.00 0.00 0.00 76 1016.8
20260903174732 30 75 4.8 16.1 0.00 0.00 0.00 76 1016.8
20260903174227 30 71 9.7 9.7 0.00 0.00 0.00 76 1016.7
20260903173722 30 78 8.0 8.0 0.00 0.00 0.00 76 1016.8
20260903173218 30 41 1.6 8.0 0.00 0.00 0.00 77 1017.0
20260903172717 30 85 3.2 8.0 0.00 0.00 0.00 76 1016.9
20260903172212 30 54 1.6 11.3 0.00 0.00 0.00 76 1016.8
20260903171708 30 82 8.0 11.3 0.00 0.00 0.00 75 1016.6
20260903171204 30 51 4.8 8.0 0.00 0.00 0.00 77 1017.0
20260903170702 30 77 3.2 9.7 0.00 0.00 0.00 77 1016.8
20260903170153 30 88 3.2 6.4 0.00 0.00 0.00 78 1017.0
20260903165650 30 87 4.8 8.0 0.00 0.00 0.00 78 1017.0
20260903165145 30 99 6.4 9.7 0.00 0.00 0.00 77 1017.3
20260903164639 30 104 4.8 4.8 0.00 0.00 0.00 79 1017.2
20260903164136 30 94 3.2 6.4 0.00 0.00 0.00 76 1017.3
20260903163630 30 114 3.2 8.0 0.00 0.00 0.00 76 1017.4
20260903163127 30 83 8.0 9.7 0.00 0.00 0.00 74 1017.6
20260903162623 30 81 3.2 8.0 0.00 0.00 0.00 73 1017.4
20260903162118 31 60 3.2 6.4 0.00 0.00 0.00 72 1017.3
20260903161613 31 98 3.2 4.8 0.00 0.00 0.00 73 1017.5
20260903161108 31 32 0.0 6.4 0.00 0.00 0.00 71 1017.7
20260903160604 31 19 0.0 4.8 0.00 0.00 0.00 72 1017.7
20260903160057 31 93 3.2 4.8 0.00 0.00 0.00 72 1017.8
20260903155556 31 146 1.6 4.8 0.00 0.00 0.00 72 1017.7
20260903155051 31 121 0.0 4.8 0.00 0.00 0.00 72 1017.7
20260903154548 31 70 0.0 6.4 0.00 0.00 0.00 73 1017.7
20260903154044 31 209 3.2 3.2 0.00 0.00 0.00 74 1017.8
20260903153539 30 155 0.0 3.2 0.00 0.00 0.00 74 1017.8
20260903153035 30 58 0.0 3.2 0.00 0.00 0.00 74 1017.8
20260903152530 30 156 3.2 4.8 0.00 0.00 0.00 73 1017.9
20260903152027 30 159 1.6 4.8 0.00 0.00 0.00 76 1017.8
20260903151525 30 99 3.2 4.8 0.00 0.00 0.00 76 1017.9
20260903151021 30 144 3.2 4.8 0.00 0.00 0.00 77 1017.8
20260903150515 30 221 3.2 4.8 0.00 0.00 0.00 76 1018.0
20260903150010 29 195 1.6 9.7 0.00 0.00 0.00 77 1017.9
20260903145505 30 213 8.0 8.0 0.00 0.00 0.00 76 1017.9
20260903145000 30 173 4.8 11.3 0.00 0.00 0.00 77 1017.8
20260903144459 30 182 3.2 4.8 0.00 0.00 0.00 78 1017.8
20260903143955 29 146 4.8 11.3 0.00 0.00 0.00 79 1017.7
20260903143451 29 193 4.8 8.0 0.00 0.00 0.00 79 1017.8
20260903142947 30 201 4.8 8.0 0.00 0.00 0.00 79 1017.6
20260903142442 29 187 4.8 9.7 0.00 0.00 0.00 78 1017.6
20260903141938 29 204 8.0 9.7 0.00 0.00 0.00 78 1017.7
20260903141433 29 213 8.0 11.3 0.00 0.00 0.00 77 1017.6
20260903140929 29 209 3.2 6.4 0.00 0.00 0.00 77 1017.5
20260903140424 30 225 8.0 8.0 0.00 0.00 0.00 76 1017.2
20260903135919 29 205 4.8 9.7 0.00 0.00 0.00 77 1017.3
20260903135415 29 233 4.8 8.0 0.00 0.00 0.00 79 1017.2
20260903134914 29 201 9.7 12.9 0.00 0.00 0.00 76 1017.2
20260903134409 31 203 6.4 8.0 0.00 0.00 0.00 70 1017.2
20260903133906 31 84 3.2 6.4 0.00 0.00 0.00 73 1017.4
20260903133403 31 189 3.2 6.4 0.00 0.00 0.00 75 1017.2
20260903132902 30 202 0.0 3.2 0.00 0.00 0.00 78 1017.3
20260903132358 30 165 3.2 4.8 0.00 0.00 0.00 80 1017.0
20260903131853 28 209 1.6 4.8 0.00 0.00 0.00 86 1017.2
20260903131352 28 198 3.2 4.8 0.00 0.00 0.00 86 1017.2
20260903130852 28 269 0.0 3.2 0.00 0.00 0.00 89 1017.0
20260903130341 28 245 1.6 4.8 0.00 0.00 0.00 88 1017.1
20260903125840 28 206 3.2 4.8 0.00 0.00 0.00 88 1016.9
20260903125336 28 255 0.0 3.2 0.00 0.00 0.00 88 1017.1
20260903124834 28 240 3.2 4.8 0.00 0.00 0.00 88 1017.1
20260903124330 28 237 3.2 3.2 0.00 0.00 0.00 87 1017.2
20260903123829 28 180 0.0 3.2 0.00 0.00 0.00 90 1017.1
20260903123323 27 176 0.0 3.2 0.00 0.00 0.00 92 1017.1